Content
SEND FEEDBACK

Daily
Averages
Monthly
Summary
United States of America

RAYMOND, WASHINGTON


Home > North America > United States > Washington
Elevation: 30 feet     Latitude: 46 39N     Longitude: 123 43W

WEATHER
 
SELECT A DAY
Number of Records: 205,648;   Date Range: 7/1/96 - 7/27/14
 
SHARE

PRINT THIS DATA

[ ← Previous Day ]
WEATHER ALMANAC - JANUARY 31, 2013
[ Next Day → ]
[ °C ]   °F
Weather ElementAverageHighLow
Temperature46.8 °F48.2 °F (12:20 pm)44.6 °F (3:20 am)
Dewpoint46.1 °F46.9 °F (12:53 pm)44.6 °F (3:20 am)
Humidity97.3 %100 % (1:08 am)93 % (3:31 am)
Barometer30.36 in30.43 in (1:53 am)30.32 in (2:09 pm)
Wind Speed6.2 mph15 mph (1:42 pm)
Weather ElementAverage
Visibility4.8 mi
Wind DirectionS (180.8 °)

Weather ElementTotal
Precipitation0.27 in
Heating Degree Days18.6 (Base 65)
Averaged from 66 records on January 31, 2013
WEATHER CONDITIONS BREAKOUT
WIND DIRECTION BREAKOUT
WEATHER BY HOUR - JANUARY 31, 2013
[ °C ]   °F
Local TimeTemperatureDewpointHumidityBarometerVisibilityWind DirectionWind SpeedGust SpeedPrecipitationEventsConditions
1:08 AM46.4 °F46.4 °F100 %30.42 in6.0 miSSW (210°)6.9 mph0.00 inOvercast
1:23 AM46.4 °F46.4 °F100 %30.42 in8.0 miSW (230°)5.8 mph0.00 inOvercast
1:53 AM46.9 °F46.0 °F97 %30.43 in7.0 miSouth (180°)6.9 mph0.01 inRainLight Rain
2:02 AM46.4 °F46.4 °F100 %30.42 in9.0 miSSE (160°)6.9 mph0.00 inOvercast
2:26 AM46.4 °F46.4 °F100 %30.42 in10.0 miSSE (150°)4.6 mph0.00 inOvercast
2:36 AM46.4 °F46.4 °F100 %30.42 in10.0 miSouth (170°)3.5 mph0.00 inOvercast
2:53 AM46.0 °F45.0 °F96 %30.43 in8.0 miCalm0.00 inOvercast
3:20 AM44.6 °F44.6 °F100 %30.41 in9.0 miCalmMostly Cloudy
3:31 AM46.4 °F44.6 °F93 %30.41 in10.0 miCalmMostly Cloudy
3:46 AM46.4 °F44.6 °F93 %30.41 in10.0 miSouth (180°)8.1 mphOvercast
3:53 AM46.0 °F45.0 °F96 %30.42 in10.0 miSouth (190°)6.9 mphOvercast
4:53 AM46.9 °F45.0 °F93 %30.42 in10.0 miCalmOvercast
5:09 AM46.4 °F44.6 °F93 %30.40 in10.0 miCalmOvercast
5:53 AM46.9 °F46.0 °F97 %30.41 in10.0 miCalmOvercast
6:53 AM46.9 °F46.0 °F97 %30.39 in10.0 miCalmOvercast
7:53 AM46.9 °F45.0 °F93 %30.39 in10.0 miSouth (180°)3.5 mphOvercast
8:43 AM46.4 °F44.6 °F93 %30.38 in8.0 miSouth (170°)6.9 mph0.01 inRainLight Rain
8:51 AM46.4 °F44.6 °F93 %30.38 in7.0 miSSE (160°)6.9 mph0.02 inRainLight Rain
8:53 AM46.9 °F45.0 °F93 %30.39 in7.0 miSouth (170°)5.8 mph0.02 inRainLight Rain
9:03 AM46.4 °F44.6 °F93 %30.38 in7.0 miSSE (160°)5.8 mph0.00 inRainLight Rain
9:28 AM46.4 °F46.4 °F100 %30.38 in10.0 miSouth (180°)5.8 mph0.02 inRainLight Rain
9:53 AM46.9 °F46.0 °F97 %30.39 in9.0 miSouth (180°)6.9 mph0.02 inRainLight Rain
10:53 AM46.9 °F46.0 °F97 %30.39 in3.0 miSouth (170°)12.7 mph0.00 inOvercast
11:53 AM46.9 °F46.0 °F97 %30.36 in3.0 miSouth (170°)11.5 mphOvercast
12:20 PM48.2 °F46.4 °F93 %30.35 in8.0 miSouth (180°)10.4 mphOvercast
12:31 PM48.2 °F46.4 °F93 %30.35 in2.5 miSouth (180°)11.5 mph0.01 inOvercast
12:46 PM46.4 °F46.4 °F100 %30.35 in3.0 miSouth (190°)6.9 mph0.01 inRainLight Rain
12:53 PM46.9 °F46.9 °F100 %30.36 in2.0 miSouth (190°)8.1 mph0.01 inRainLight Rain
1:02 PM48.2 °F46.4 °F93 %30.35 in1.5 miSouth (190°)8.1 mph0.01 inRainLight Rain
1:14 PM48.2 °F46.4 °F93 %30.34 in2.5 miSouth (180°)10.4 mph0.01 inRainLight Rain
1:42 PM48.2 °F46.4 °F93 %30.33 in3.0 miSouth (180°)15.0 mph0.02 inOvercast
1:53 PM48.0 °F46.9 °F96 %30.33 in4.0 miSouth (180°)13.8 mph0.02 inOvercast
2:09 PM48.2 °F46.4 °F93 %30.32 in6.0 miSouth (180°)12.7 mphOvercast
2:34 PM48.2 °F46.4 °F93 %30.32 in3.0 miSouth (180°)12.7 mphOvercast
2:44 PM48.2 °F46.4 °F93 %30.33 in2.5 miSouth (190°)11.5 mphOvercast
2:53 PM48.0 °F46.9 °F96 %30.34 in1.8 miSouth (190°)11.5 mphOvercast
3:53 PM48.0 °F46.9 °F96 %30.34 in1.8 miSouth (180°)10.4 mph0.01 inRainLight Rain
4:05 PM48.2 °F46.4 °F93 %30.32 in2.0 miSouth (180°)11.5 mph0.00 inOvercast
4:19 PM48.2 °F46.4 °F93 %30.33 in1.5 miSouth (190°)11.5 mph0.00 inOvercast
4:53 PM46.9 °F46.9 °F100 %30.33 in1.2 miSouth (190°)9.2 mph0.00 inOvercast
5:30 PM46.4 °F46.4 °F100 %30.32 in1.5 miSSW (200°)6.9 mph0.01 inOvercast
5:53 PM46.9 °F46.9 °F100 %30.33 in1.5 miSSW (210°)5.8 mph0.01 inOvercast
6:13 PM46.4 °F46.4 °F100 %30.32 in1.2 miSSW (210°)6.9 mph0.01 inOvercast
6:53 PM46.9 °F46.9 °F100 %30.33 in2.5 miWSW (240°)4.6 mph0.01 inOvercast
7:02 PM46.4 °F46.4 °F100 %30.32 in3.0 miWSW (240°)3.5 mphOvercast
7:11 PM46.4 °F46.4 °F100 %30.33 in3.0 miWSW (240°)3.5 mphOvercast
7:42 PM46.4 °F46.4 °F100 %30.32 in3.0 miWSW (240°)3.5 mphOvercast
7:53 PM46.9 °F46.0 °F97 %30.34 in2.0 miSW (230°)5.8 mphOvercast
7:59 PM46.4 °F46.4 °F100 %30.33 in1.2 miWSW (250°)3.5 mphOvercast
8:10 PM46.4 °F46.4 °F100 %30.32 in0.5 miWSW (250°)4.6 mphFogFog
8:35 PM46.4 °F46.4 °F100 %30.33 in0.5 miWSW (240°)5.8 mphFogFog
8:53 PM46.0 °F46.0 °F100 %30.34 in1.2 miWSW (250°)5.8 mphOvercast
9:04 PM46.4 °F46.4 °F100 %30.33 in3.0 miWSW (240°)4.6 mphOvercast
9:23 PM46.4 °F46.4 °F100 %30.33 in3.0 miWSW (240°)4.6 mphOvercast
9:28 PM46.4 °F46.4 °F100 %30.33 in2.0 miWSW (240°)3.5 mph0.01 inOvercast
9:36 PM46.4 °F46.4 °F100 %30.33 in1.8 miSW (230°)4.6 mph0.01 inOvercast
9:43 PM46.4 °F46.4 °F100 %30.33 in2.5 miSW (230°)5.8 mph0.01 inOvercast
10:02 PM46.4 °F46.4 °F100 %30.33 in1.2 miWSW (250°)4.6 mphOvercast
10:19 PM46.4 °F46.4 °F100 %30.33 in3.0 miWest (260°)5.8 mphOvercast
10:38 PM46.4 °F46.4 °F100 %30.33 in5.0 miWest (260°)5.8 mphOvercast
10:51 PM46.4 °F46.4 °F100 %30.33 in2.5 miWSW (240°)4.6 mphOvercast
10:53 PM46.0 °F46.0 °F100 %30.35 in2.5 miWSW (250°)3.5 mphOvercast
11:01 PM46.4 °F46.4 °F100 %30.33 in3.0 miSW (230°)4.6 mphOvercast
11:13 PM46.4 °F44.6 °F93 %30.34 in5.0 miWest (260°)4.6 mphOvercast
11:28 PM46.4 °F46.4 °F100 %30.34 in5.0 miCalmOvercast
11:53 PM45.0 °F45.0 °F100 %30.35 in9.0 miWSW (240°)4.6 mphOvercast
Hourly data recorded from KHQM, located miles away from Raymond, Washington







STORIES FROM OUR PARTNERS